Cloud_Cover
4 59 35 5 30 100 100 26 5 7 5 5 5 20 93 100 100 100 70 75 91 96 100 100 97 100 100 100 92 46 100 26 7 5 5 4 0 0 0 0 0 0 0 0 0 4 5 3 4
4 0 43 84 83 100 100 92 5 33 5 4 4 3 4 70 50 100 100 100 92 93 96 63 100 96 100 100 100 40 100 74 5 6 6 5 0 0 0 0 0 0 1 0 0 0 0 0 0
40 0 0 5 100 100 100 17 22 18 5 5 5 50 46 3 5 86 100 100 54 27 99 91 100 99 100 100 100 97 100 92 62 20 42 3 0 0 0 0 0 0 0 0 0 2 5 5 0
5 0 2 5 100 80 84 5 5 5 5 5 5 19 6 2 0 2 33 8 91 90 91 100 100 100 100 100 100 100 100 100 100 100 100 5 4 0 0 0 0 0 2 7 0 0 3 0 0
85 2 5 3 11 66 64 6 0 4 5 0 5 5 5 5 5 0 0 5 22 88 27 100 100 100 100 100 100 100 100 53 11 38 48 5 5 4 1 0 0 0 10 11 0 0 22 24 5
97 22 6 0 5 2 4 4 0 5 5 0 0 3 0 0 3 5 5 1 5 50 80 91 100 100 100 100 100 86 98 42 22 30 24 5 5 7 5 2 0 15 2 1 4 2 6 52 5
99 82 34 5 0 4 3 0 0 0 0 0 0 0 0 0 0 0 0 5 4 50 56 32 89 100 95 6 92 99 58 100 12 32 97 86 13 5 5 5 5 0 0 0 2 5 5 5 5
100 62 89 56 0 0 1 0 0 0 0 0 0 0 0 0 0 0 0 0 26 72 80 99 97 60 100 100 12 33 54 59 21 5 73 100 54 10 5 6 14 0 0 0 5 5 5 5 5
5 40 97 52 1 0 0 0 0 0 0 0 0 0 0 0 0 0 0 0 38 100 100 100 100 99 53 99 100 100 100 84 14 7 4 7 29 14 5 0 1 0 0 0 4 4 5 5 5
0 4 6 5 2 0 2 2 0 0 0 0 0 0 0 0 0 0 1 0 6 76 100 100 100 100 24 34 54 95 20 46 56 47 64 52 40 46 12 0 0 3 3 5 4 5 5 5 5
0 0 0 0 0 0 1 5 5 3 0 0 0 0 0 0 0 0 0 0 0 0 5 86 100 100 4 8 42 96 100 84 64 63 57 57 50 46 39 40 23 7 5 5 5 0 10 5 71
0 0 0 0 0 0 0 0 1 0 0 0 0 0 0 0 0 0 0 0 0 0 0 0 30 83 100 92 61 100 100 41 65 83 46 24 96 100 100 75 45 85 54 42 5 5 5 5 80
0 0 0 0 0 0 0 0 0 0 0 0 0 0 0 0 0 0 0 0 0 0 0 1 0 25 100 100 100 96 100 80 97 82 62 95 100 100 100 100 98 100 99 13 5 5 5 9 65
0 0 0 0 0 0 0 0 0 0 0 0 0 0 0 0 0 0 0 0 0 0 0 0 10 11 37 100 100 100 100 100 99 45 74 87 92 100 100 100 99 95 74 50 5 9 96 89 100
0 0 0 0 0 0 0 0 0 0 0 0 0 0 0 0 0 0 0 0 0 0 0 0 16 22 22 26 100 100 100 100 81 100 93 93 100 100 100 100 78 35 100 84 49 99 100 100 100
0 0 0 0 0 0 0 0 0 0 0 0 0 0 0 0 0 0 0 0 0 0 2 2 3 30 18 18 33 100 100 100 80 100 100 100 100 99 80 99 100 100 96 64 45 100 100 100 100
0 0 0 0 0 0 0 0 0 0 0 0 0 0 0 0 0 0 0 0 79 4 0 12 0 7 10 15 15 96 56 100 100 95 100 100 100 100 100 61 56 78 58 96 100 100 100 100 100
0 0 0 0 0 0 0 0 0 0 0 0 0 0 0 0 0 0 0 0 0 87 58 65 1 0 0 59 95 86 73 83 38 100 100 100 100 100 100 100 100 100 100 90 100 100 100 100 100
0 0 0 0 0 0 0 0 0 0 0 0 0 0 0 0 0 0 0 0 0 0 11 98 6 12 14 91 100 100 99 91 100 63 40 100 100 100 100 100 100 100 100 100 100 100 100 100 100
0 0 0 0 0 0 0 0 0 0 0 0 0 0 0 0 0 0 0 0 0 0 0 0 4 0 20 42 64 75 70 34 95 88 20 92 100 100 100 100 100 100 100 100 100 100 100 97 100
0 0 0 0 0 0 0 0 0 0 0 0 0 0 0 0 0 0 0 0 0 0 0 0 2 0 2 2 48 81 96 24 53 97 4 95 96 100 100 100 100 100 100 100 100 100 100 80 100
0 0 0 0 0 0 2 14 0 0 0 0 0 0 0 0 0 0 0 0 0 0 0 0 3 12 2 67 18 56 14 4 2 0 3 5 11 56 100 100 100 100 100 100 100 98 96 82 88
0 0 0 0 0 2 4 3 0 0 5 0 0 0 0 0 0 0 0 0 0 0 0 0 0 32 7 71 100 28 5 2 0 0 0 63 100 100 98 98 100 100 100 100 100 100 76 100 100
0 1 0 0 0 0 0 2 0 0 0 0 0 0 0 0 0 0 0 0 0 0 0 0 16 61 57 48 100 99 63 12 0 8 0 0 10 84 100 100 100 100 100 100 100 98 100 100 95
4 5 4 5 5 4 0 3 0 1 1 0 0 0 0 0 0 0 0 0 0 0 0 0 0 28 100 76 72 100 100 100 36 0 1 39 10 12 100 100 100 100 100 100 100 100 93 81 66
0 4 10 96 6 4 4 5 0 0 0 4 0 0 0 0 0 0 0 0 0 0 0 0 0 0 23 100 93 100 100 100 100 37 2 26 1 3 46 100 100 100 100 100 100 90 99 100 98
5 5 5 92 6 81 8 0 0 10 100 7 41 19 6 0 0 0 0 0 0 0 0 0 0 0 1 18 93 91 94 100 99 100 36 92 5 4 80 18 100 100 100 100 100 100 100 100 100
10 14 8 57 89 78 4 5 5 18 28 43 34 46 91 4 0 0 0 0 0 0 0 0 0 0 5 5 12 56 70 100 100 100 100 99 84 38 98 66 70 100 100 100 100 100 100 100 100
40 29 92 96 100 99 69 7 21 5 72 86 100 90 89 97 49 2 0 0 0 0 1 4 0 0 0 69 1 3 28 55 100 100 100 84 58 98 100 98 53 78 100 100 100 100 100 100 100
100 82 100 100 72 100 100 23 89 60 99 20 99 100 100 88 94 5 3 0 3 46 78 5 44 3 2 0 0 0 0 32 45 100 100 100 73 100 100 100 90 44 100 100 100 100 100 100 100